Regional Weather Roundup
Issued by NWS Grand Forks, ND

Home | Current Version | Previous Version | Text Only | Print | Product List | Glossary Off
Versions: 1 2 3 4 5 6 7 8 9 10 11 12 13 14 15 16 17 18 19 20 21 22 23 24 25 26 27 28 29 30 31 32 33 34 35 36 37 38 39 40 41 42 43 44 45 46 47 48 49 50

876
ASUS43 KFGF 121931
RWRFGF
PRAIRIE TO PINES  WEATHER ROUNDUP
NATIONAL WEATHER SERVICE EASTERN NORTH DAKOTA/GRAND FORKS ND
100 PM CST FRI FEB 12 2016

 **SATELLITE DATA USED TO AUGMENT SKY COVER AT AUTOMATED STATIONS**
 *****  WEATHER ACROSS EASTERN NORTH DAKOTA  *****

CITY           SKY/WX    TMP DP  RH WIND       PRES   REMARKS
GRAND FORKS    MOSUNNY   -1 -11  62 N18       30.67F WCI -22
GRAND FRKS AFB MOSUNNY   -2 -13  60 NW12      30.67S WCI -20
DEVILS LAKE    CLOUDY    -7 -13  75 N10       30.63F WCI -25
FARGO          MOSUNNY    2  -9  60 N17       30.65S WCI -18
WAHPETON ARPT  MOCLDY     3  -8  60 N16G24    30.63S WCI -16
$$

 ***** WEATHER ACROSS CENTRAL AND WESTERN NORTH DAKOTA  *****

CITY           SKY/WX    TMP DP  RH WIND       PRES   REMARKS
BISMARCK       MOSUNNY   13   1  59 NE5       30.60S WCI   5
MINOT          SUNNY      9  -7  48 N5        30.60F WCI   1
JAMESTOWN      SUNNY      0  -9  65 N12       30.60F WCI -17
MINOT AFB      SUNNY     13  -5  45 CALM      30.60F
GARRISON         N/A      6  -4  63 E7        30.56F WCI  -6
WILLISTON      SUNNY     12  -2  53 E7        30.55F WCI   1
DICKINSON      MOSUNNY   10  -3  55 E9        30.46F WCI  -3
HETTINGER      CLOUDY    14   7  73 E12       30.46F WCI   0
$$

 *****  OTHER AIRPORT OBSERVATIONS IN OUR AREA  *****

CITY           SKY/WX    TMP DP  RH WIND       PRES   REMARKS
WALHALLA       FAIR      -2 -11  65 NW14      30.67S WCI -21
GRAFTON AIRPOR FAIR      -4 -11  71 NW13      30.70S WCI -23
VALLEY CITY AR FAIR      -2 -11  65 N12       30.63F WCI -20
CANDO          FAIR      -2 -11  65 N7        30.65S WCI -16
CAVALIER APRT  FAIR      -2 -11  65 N12       30.68S WCI -20
GWINNER        FAIR       3  -6  66 N12       30.62F WCI -13
SHEYENNE NWR     N/A      1 -13  52 N9        29.95S WCI -14
ROLLA          FAIR      -2 -13  60 N13       30.58S WCI -21
 ***** THE ABOVE OBSERVATIONS ARE NON NWS ARE NOT QUALITY
       CONTROLLED AND MAY MIS-REPORT RAIN FOR SNOW...
$$

  *****  WEATHER ACROSS NORTHERN MINNESOTA  *****

CITY           SKY/WX    TMP DP  RH WIND       PRES   REMARKS
FLAG ISLAND    SUNNY     -8 -18  59 NW17      30.52S WCI -31
WARROAD        SUNNY     -4 -17  54 NW17G23   30.55S WCI -26
ROSEAU         SUNNY     -6 -15  65 W10       30.57S WCI -23
HALLOCK        SUNNY     -6 -15  65 NW15      30.66S WCI -27
THF RVR FALLS  SUNNY     -4 -20  45 W14       30.60R WCI -24
BAUDETTE       SUNNY     -6 -19  53 NW15      30.50S WCI -27
WASKISH        SUNNY     -2 -15  55 W13       30.51S WCI -21
CROOKSTON      MOSUNNY   -2 -11  65 N18       30.66S WCI -24
STEPHEN NDAWN    N/A     -6 -11  77 NW20        N/A  WCI -29
GREENBUSH NDAW   N/A     -8 -17  65 NW14        N/A  WCI -28
$$
  *****  WEATHER ACROSS CENTRAL AND WEST MINNESOTA  *****

CITY           SKY/WX    TMP DP  RH WIND       PRES   REMARKS
FOSSTON        SUNNY      0 -15  50 NW14      30.57S WCI -19
BEMIDJI        SUNNY     -2 -15  53 NW13G18   30.49F WCI -21
PARK RAPIDS    SUNNY      2 -14  47 NW16      30.47S WCI -18
ELBOW LAKE     FAIR       1  -9  63 NW16      30.58R WCI -18
WADENA         SUNNY      1 -11  55 W14       30.50S WCI -17
DETROIT LAKES  SUNNY      0 -11  60 N18       30.56R WCI -22
MOORHEAD       SUNNY      0 -11  60 N17       30.64F WCI -21
FERGUS FALLS   SUNNY      1  -9  60 N20       30.62S WCI -20
MORRIS MN      SUNNY      5  -2  72 N21G26    30.56R WCI -16
STAPLES        SUNNY      3 -15  43 NW16      30.49R WCI -16
$$
  *****  WEATHER ELSEWHERE ACROSS MINNESOTA  *****

CITY           SKY/WX    TMP DP  RH WIND       PRES   REMARKS
DULUTH         MOSUNNY   -1 -17  46 N18G33    30.34R WCI -22
INTRNTL FALLS  SUNNY     -5 -20  48 W12       30.45S WCI -23
ELY            SUNNY     -4 -17  54 NW14G21   30.34S WCI -24
CLOQUET        SUNNY      0 -18  42 NW17G24   30.39R WCI -21
WHEATON        PTSUNNY    5  -2  72 NW17G23   30.63S HAZE    WCI -14
BRAINERD       SUNNY      3 -14  45 NW15G23   30.47R WCI -16
HIBBING        SUNNY     -4 -16  56 NW18      30.40R WCI -26
ALEXANDRIA     SUNNY      2 -10  57 NW15      30.51R WCI -17
SAINT CLOUD    SUNNY      6 -10  47 NW12      30.48R WCI  -9
MINNEAPOLIS    SUNNY     10  -8  44 NW22      30.44S WCI -10
$$

  *****  WEATHER ACROSS SOUTH DAKOTA  *****

CITY           SKY/WX    TMP DP  RH WIND       PRES   REMARKS
SIOUX FALLS    MOSUNNY   11   0  61 N20       30.54R WCI  -7
BROOKINGS      SUNNY      7  -3  64 N17G24    30.52S WCI -12
WATERTOWN      SUNNY      4  -6  63 N16       30.53S WCI -15
HURON          SUNNY     12   1  61 N16       30.60S WCI  -5
SISSETON         N/A      3  -6  66 N17       30.61S WCI -17
ABERDEEN       SUNNY      8  -3  61 N15       30.62F WCI  -9
MITCHELL       MOSUNNY   15   6  67 N16       30.59F WCI  -1
PIERRE         CLOUDY    22  12  65 NE9       30.53F WCI  12
MOBRIDGE       SUNNY     16   7  67 N8        30.54S WCI   5
RAPID CITY     FOG       27  26  96 SE8       30.39F VSB 1/2 WCI  19
$$

  *****  SOME WEATHER IN NEARBY STATES *****

CITY           SKY/WX    TMP DP  RH WIND       PRES   REMARKS
GLASGOW MT     CLOUDY    15   9  76 E18       30.40F WCI  -2
GREAT FALLS MT CLOUDY    44  36  73 SE3       30.13F
CHEYENNE WY    PTSUNNY   48  26  42 S7        30.30F
SCOTTSBLUFF NE CLOUDY    36  29  75 E10       30.37S
OMAHA NE       MOSUNNY   25  13  60 N20       30.52R WCI  11
DES MOINES IA  MOSUNNY   20   7  57 NW20      30.46R WCI   4
DAVENPORT IA   SUNNY     23   6  48 NW26G35   30.29S WCI   6
CHICAGO IL     PTSUNNY   22   7  52 NW22      30.15S WCI   6
EAU CLAIRE WI  SUNNY      9  -9  44 N16       30.34R WCI  -8
LA CROSSE WI   SUNNY     14   0  53 NW25      30.32R WCI  -5
$$

  *****  SOME NATIONAL WEATHER *****

CITY           SKY/WX    TMP DP  RH WIND       PRES   REMARKS
LA GUARDIA NY  CLOUDY    26   1  34 SW6G17    30.10F WCI  19
RALEIGH NC     FLURRIES  28  19  69 CALM      30.10F
ATLANTA GA     MOSUNNY   60  33  36 W14       30.06F
NEW ORLEANS LA MOSUNNY   76  53  44 W17G24    30.22F
OKLAHOMA CITY  MOSUNNY   57  34  41 N13       30.36S
ALBUQUERQUE NM SUNNY     59  18  20 N7        30.38F
SALT LAKE CITY FOG       30  27  88 N5        30.43F VSB 1
LOS ANGELES CA PTSUNNY   74  44  34 VRB5      30.11F
BOISE ID       MOSUNNY   44  32  62 N3        30.32F
SEATTLE WA     CLOUDY    53  51  93 S9        30.10F
$$

*** WEATHER ACROSS MANITOBA...SASKATCHEWAN AND ONTARIO ***
                ***ONTARIO***

CITY           SKY/WX    TMP DP  RH WIND       PRES   REMARKS
GERALDTON      PTSUNNY  -17 -27  58 NW12G22   30.14  WCI -38
THUNDER BAY    MOSUNNY   -6 -20  49 NW14G26   30.30F WCI -26
SIOUX LOOKOUT  MOSUNNY  -11 -24  53 NW9G20    30.34S WCI -29
TORONTO        SNOWSHWR  23  12  63 W24G31    29.83F WCI   7
BIG TROUT LK   CLOUDY   -18 -27  63 NW16G25   30.27S HAZE    WCI -44
PICKLE LAKE    CRYSTALS -11 -26  49 NW10G20   30.22R WCI -30
DRYDEN         FLURRIES  -9 -20  59 W18       30.37R WCI -33
KENORA         SUNNY     -9 -20  59 NW12G20   30.46R WCI -29
$$
                *** MANITOBA***

CITY           SKY/WX    TMP DP  RH WIND       PRES   REMARKS
BRANDON        MOSUNNY   -4 -15  59 NW8       30.64F WCI -19
DAUPHIN        SUNNY     -6 -17  59 SW5       30.70F WCI -17
ISLAND LAKE    SUNNY    -15 -22  70 W15       30.47S WCI -38
PILOT MOUND      N/A     -8 -15  71 NW9         N/A  WCI -25
THE PAS        MOSUNNY  -11 -22  58 NW7       30.69F WCI -26
THOMPSON       SUNNY    -11 -20  64 NW9       30.57S WCI -29
WINNIPEG       SUNNY     -8 -17  65 NW12      30.67S WCI -27
LYNN LAKE      SUNNY    -15 -22  70 W9        30.59S WCI -33
CHURCHILL      CRYSTALS -18 -26  69 NW18G29   30.45R BLWGSNOWWCI -45
GILLAM         SUNNY    -15 -24  64 W16G22    30.46R WCI -39
$$
                ***SASKATCHEWAN***

CITY           SKY/WX    TMP DP  RH WIND       PRES   REMARKS
ESTEVAN        PTSUNNY   14  -2  48 SE6       30.56F WCI   5
KINDERSLEY     CLOUDY     9   1  72 SE18      30.33F WCI -10
LLOYDMINSTER   CLOUDY     3  -2  78 SE17      30.35F WCI -17
PRINCE ALBERT  MOSUNNY   -9 -15  77 SE6       30.63F WCI -23
REGINA         PTSUNNY    9  -4  56 SE9       30.55F WCI  -5
YORKTON        SUNNY     -8 -13  77 CALM      30.62R
N. BATTLEFORD  SUNNY      0  -6  78 SE20      30.49F WCI -22
LA RONGE       MOSUNNY  -15 -22  70 NE7       30.63F WCI -31
SASKATOON      PTSUNNY    5  -6  61 SE12      30.55F WCI -11
SWIFT CURRENT  CLOUDY    12   3  67 SE17      30.33F WCI  -5
$$
NOTE: THESE ARE AUTOMATED STATIONS WITH LIMITED QUALITY CONTROL
      "FAIR" INDICATES FEW OR NO CLOUDS BELOW 12,000 FEET WITH NO
      SIGNIFICANT WEATHER AND/OR OBSTRUCTIONS TO VISIBILITY.
      SKY/WX - SKY CONDITION AND SIGNIFICANT WEATHER.
      TMP - AIR TEMPERATURE.    DP   - DEWPOINT TEMPERATURE.
      RH  - RELATIVE HUMIDITY.  PRES - PRESSURE.
      HX  - HEAT INDEX.         WCI  - WIND CHILL INDEX.
$




USA.gov is the U.S. government's official web portal to all federal, state and local government web resources and services.